Overview Statistics Trail Chart Weather Telemetry Raw packets
 

This is the latest recevied weather packets stored in our database for station/object W8KVG. If no packets are shown the sender has not sent any weather packets the latest 10 day(s).

<< 50 51 52 53 54 55 56 >>
Time Temp. Humidity Pressure Rain* Wind** Luminosity Snow
1777570321 8.89° C 77% 1012.6 hPa 0 mm - 156 W/m² -
1777570016 8.33° C 82% 1012.6 hPa 0 mm - 225 W/m² -
1777569712 7.78° C 80% 1012.6 hPa 0 mm - 215 W/m² -
1777569408 7.22° C 82% 1012.6 hPa 0 mm - 177 W/m² -
1777569105 7.22° C 84% 1012.8 hPa 0 mm - 103 W/m² -
1777568802 6.67° C 82% 1012.8 hPa 0 mm - 68 W/m² -
1777568499 7.22° C 85% 1012.8 hPa 0 mm - 64 W/m² -
1777568195 7.22° C 85% 1012.7 hPa 0 mm - 72 W/m² -
1777567893 7.22° C 84% 1012.8 hPa 0 mm - 49 W/m² -
1777567588 7.22° C 83% 1013 hPa 0 mm - 45 W/m² -
1777567286 7.22° C 82% 1012.5 hPa 0 mm - 54 W/m² -
1777566984 7.78° C 82% 1012.8 hPa 0 mm - 67 W/m² -
1777566676 7.78° C 82% 1012.5 hPa 0 mm - 122 W/m² -
1777566374 7.78° C 82% 1012.4 hPa 0 mm - 169 W/m² -
1777566071 7.78° C 82% 1012.4 hPa 0 mm - 94 W/m² -
1777565766 7.78° C 82% 1012.4 hPa 0 mm - 117 W/m² -
1777565463 7.78° C 82% 1012.4 hPa 0 mm - 156 W/m² -
1777565159 7.78° C 85% 1012.4 hPa 0 mm - 269 W/m² -
1777564855 7.22° C 86% 1012.4 hPa 0 mm - 119 W/m² -
1777564550 6.67° C 86% 1012.5 hPa 0 mm - 93 W/m² -
1777564246 6.67° C 87% 1012.4 hPa 0 mm - 61 W/m² -
1777563942 6.67° C 87% 1012.5 hPa 0 mm - 76 W/m² -
1777563639 6.67° C 87% 1012.5 hPa 0 mm - 69 W/m² -
1777563338 6.67° C 87% 1012.4 hPa 0 mm - 64 W/m² -
1777563035 7.22° C 87% 1012.4 hPa 0 mm - 80 W/m² -

* Rain latest hour (hover to see other rain measurements)
** Current wind speed in m/s (hover to see current wind gust speed)